[[{"header":{"parameterUnit":"m.s-1","parameterCategory":1,"la1":30.2991,"la2":30.254,"lo1":-89.0895,"lo2":-89.0444,"dy":0.0017,"dx":0.0017,"nx":28,"ny":28,"refTime":"2024-04-29T03:00:00:Z","depth":0,"parameterNumber":2,"parameterNumberName":"U-component_of_WINDS"},"data":[0,0,0,0,0,0,0,0,0,0,0,0,0,0,0,0,0,0,0,0,0,0,0,0,0,0,0,0,0,0,0,0,0,0,0,0,0,0,0,0,0,0,0,0,0,0,0,0,0,0,0,0,0,0,0,0,0,0,-6.2515,-6.2517,0,-6.2698,-6.27,-6.2703,-6.2717,-6.2715,-6.2713,-6.2711,-6.2898,-6.2904,-6.2911,0,0,0,0,0,0,0,0,0,0,0,0,0,-6.2176,-6.2182,-6.2515,-6.2517,-6.2519,-6.2698,-6.2701,-6.2703,-6.2717,-6.2715,-6.2712,-6.271,-6.2896,-6.2904,-6.2912,0,0,0,0,0,0,0,0,0,0,0,0,0,-6.2337,-6.2184,-6.2514,-6.2548,-6.2553,-6.2698,-6.2701,-6.2704,-6.2718,-6.2715,-6.2712,-6.2709,-6.2893,-6.2903,-6.2913,-6.3037,0,0,-6.2944,-6.2949,0,0,0,0,0,0,0,0,-6.2328,-6.235,-6.2541,-6.2546,-6.2551,-6.2682,-6.265,-6.2815,-6.2718,-6.2655,-6.2711,-6.2707,-6.2828,-6.2844,-6.2885,-6.3045,-6.3053,-6.2945,-6.2951,-6.2956,-6.2959,0,0,0,0,0,0,0,-6.2317,-6.2342,-6.2587,-6.2543,-6.255,-6.2554,-6.2573,-6.2681,-6.2756,-6.266,-6.2662,-6.2683,-6.2831,-6.2875,-6.2889,-6.3056,-6.2945,-6.2954,-6.296,-6.2964,-6.3328,-6.3331,0,0,0,0,0,0,-6.23,-6.2333,-6.2581,-6.2593,-6.243,-6.2562,-6.2584,-6.2643,-6.2755,-6.2769,-6.2686,-6.2683,-6.2859,-6.2877,-6.2896,-6.3047,-6.2956,-6.2965,-6.2971,-6.3324,-6.3328,-6.3332,0,0,0,0,0,0,-6.2292,-6.2322,-6.2574,-6.2463,-6.2496,-6.2571,-6.2637,-6.2648,-6.2692,-6.2774,-6.2788,-6.2717,-6.2857,-6.2881,-6.3002,-6.3054,-6.297,-6.2979,-6.332,-6.3325,-6.333,-6.3351,0,0,0,0,0,0,-6.2282,-6.2319,-6.2366,-6.2464,-6.2502,-6.2677,-6.264,-6.2654,-6.271,-6.2708,-6.2807,-6.2821,-6.2856,-6.2986,-6.3012,-6.3066,-6.2987,-6.3316,-6.3322,-6.3329,-6.3346,-6.3356,-6.3365,0,0,0,0,0,-6.227,-6.2365,-6.2369,-6.2399,-6.2563,-6.268,-6.2701,-6.2741,-6.2714,-6.2762,-6.2816,-6.2817,-6.3045,-6.2998,-6.3027,-6.3086,-6.3312,-6.332,-6.3328,-6.3341,-6.3354,-6.3365,0,0,0,0,0,0,-6.227,-6.2378,-6.2384,-6.2513,-6.2587,-6.2682,-6.2744,-6.2753,-6.2836,-6.2831,-6.2877,-6.2899,-6.3017,-6.3064,-6.3011,-6.3211,-6.3176,-6.319,-6.3176,-6.3188,-6.3198,-6.3183,-6.2996,0,0,0,0,0,-6.2286,-6.2372,-6.2461,-6.2567,-6.2604,-6.2668,-6.272,-6.2744,-6.2823,-6.2854,-6.2916,-6.2992,-6.308,-6.3138,-6.3224,-6.3354,-6.3375,-6.3408,-6.3418,-6.3425,-6.3436,-6.3508,-6.3523,-6.3358,-6.3358,-6.3358,0,0,-6.2317,-6.2387,-6.2439,-6.2568,-6.2629,-6.2717,-6.2694,-6.2788,-6.2853,-6.2868,-6.2985,-6.3034,-6.3122,-6.3247,-6.3305,-6.329,-6.3487,-6.3435,-6.3441,-6.3447,-6.3517,-6.3533,-6.3547,-6.3363,-6.3362,-6.3361,0,0,-6.242,-6.2482,-6.2576,-6.2637,-6.2729,-6.2771,-6.2794,-6.2888,-6.2921,-6.3039,-6.3053,-6.3132,-6.3283,-6.3345,-6.3396,-6.3525,-6.3529,-6.3552,-6.36,-6.367,-6.3683,-6.3694,-6.3738,-6.3754,-6.3563,-6.3563,-6.3563,0,-6.2447,-6.258,-6.2623,-6.2717,-6.2773,-6.2793,-6.2888,-6.2945,-6.3061,-6.3099,-6.308,-6.3271,-6.3332,-6.3472,-6.3503,-6.3545,-6.3571,-6.3539,-6.3677,-6.369,-6.3701,-6.3743,-6.376,-6.3565,-6.3564,-6.3564,-6.3564,0,-6.2609,-6.2701,-6.2767,-6.2877,-6.2942,-6.3036,-6.3092,-6.3153,-6.3172,-6.3216,-6.3337,-6.3411,-6.3512,-6.3547,-6.3567,-6.369,-6.3678,-6.3668,-6.3632,-6.3718,-6.3758,-6.3775,-6.3567,-6.3567,-6.3566,-6.3566,0,0,-6.2714,-6.2849,-6.2872,-6.2922,-6.3026,-6.3098,-6.3194,-6.3293,-6.3343,-6.3423,-6.3503,-6.3632,-6.3624,-6.3682,-6.371,-6.3771,-6.3866,-6.3754,-6.3756,-6.377,-6.4004,-6.4009,-6.4027,-6.3871,-6.3874,-6.3877,-6.3996,0,-6.2826,-6.2996,-6.3038,-6.3183,-6.3268,-6.3289,-6.3372,-6.3444,-6.3489,-6.3568,-6.3617,-6.3707,-6.369,-6.3725,-6.3787,-6.3841,-6.3913,-6.3833,-6.3944,-6.3948,-6.3919,-6.4049,-6.4054,-6.4163,-6.4012,-6.4015,-6.4017,0,-6.2979,-6.3062,-6.3216,-6.3309,-6.3346,-6.342,-6.3514,-6.359,-6.3673,-6.3701,-6.3767,-6.3789,-6.3889,-6.3851,-6.3989,-6.3933,-6.3982,-6.4016,-6.4021,-6.403,-6.3985,-6.4059,-6.4199,-6.4214,-6.4043,-6.4041,-6.4039,0,-6.3038,-6.3189,-6.33,-6.3343,-6.3454,-6.3505,-6.3554,-6.3635,-6.3692,-6.3775,-6.3812,-6.3906,-6.3957,-6.4029,-6.4075,-6.4044,-6.4209,-6.4175,-6.4234,-6.4233,-6.4266,-6.4262,-6.4412,-6.4301,-6.4301,-6.4301,-6.4301,0,-6.3158,-6.325,-6.3327,-6.3395,-6.35,-6.3547,-6.3649,-6.3699,-6.377,-6.3848,-6.3873,-6.3945,-6.4004,-6.4084,-6.4122,-6.423,-6.4253,-6.4278,-6.4286,-6.4274,-6.4271,-6.4304,-6.4297,-6.4305,-6.4304,-6.4303,-6.4303,0,-6.3239,-6.3295,-6.3417,-6.3513,-6.354,-6.3612,-6.3694,-6.3761,-6.3807,-6.3905,-6.3931,-6.4003,-6.41,-6.4154,-6.4275,-6.4301,-6.442,-6.4426,-6.4391,-6.4394,-6.445,-6.4443,-6.4624,-6.465,-6.4524,-6.4525,-6.4526,0,-6.3311,-6.3382,-6.3486,-6.354,-6.359,-6.3677,-6.3735,-6.3786,-6.3846,-6.3947,-6.4001,-6.4099,-6.418,-6.4333,-6.4395,-6.4488,-6.4495,-6.4553,-6.4509,-6.4495,-6.4494,-6.4488,-6.4494,-6.4559,-6.456,-6.4561,-6.4562,0,-6.3431,-6.3455,-6.3538,-6.3632,-6.3701,-6.3777,-6.3853,-6.3896,-6.3959,-6.4025,-6.4124,-6.4187,-6.4311,-6.4407,-6.4505,-6.4556,-6.4569,-6.4576,-6.4594,-6.4581,-6.4557,-6.4569,-6.4409,-6.457,-6.4569,-6.4569,-6.4568,-6.4568,-6.3508,-6.3573,-6.3656,-6.3748,-6.381,-6.3881,-6.3948,-6.4003,-6.4086,-6.419,-6.4216,-6.4319,-6.4401,-6.4535,-6.4588,-6.467,-6.4659,-6.4686,-6.4693,-6.4698,-6.4698,-6.4546,-6.4688,-6.4688,-6.4688,-6.4688,-6.4688,0,-6.3628,-6.3683,-6.3767,-6.3872,-6.3945,-6.3952,-6.4037,-6.4097,-6.4187,-6.4263,-6.4342,-6.4456,-6.455,-6.4621,-6.4717,-6.4769,-6.4777,-6.4792,-6.4787,-6.4799,-6.4703,-6.4677,-6.4784,-6.4783,-6.4783,-6.4783,-6.4783,-6.4783,-6.3699,-6.3807,-6.3842,-6.3982,-6.4036,-6.4138,-6.4185,-6.425,-6.431,-6.4436,-6.4514,-6.456,-6.4634,-6.4736,-6.4822,-6.4841,-6.4874,-6.4888,-6.4907,-6.4816,-6.4805,-6.4795,-6.4771,-6.4895,-6.4896,-6.4995,-6.4996,-6.4997]},{"header":{"parameterUnit":"m.s-1","parameterCategory":1,"la1":30.2991,"la2":30.254,"lo1":-89.0895,"lo2":-89.0444,"dy":0.0017,"dx":0.0017,"nx":28,"ny":28,"refTime":"2024-04-29T03:00:00:Z","depth":0,"parameterNumber":3,"parameterNumberName":"V-component_of_WINDS"},"data":[0,0,0,0,0,0,0,0,0,0,0,0,0,0,0,0,0,0,0,0,0,0,0,0,0,0,0,0,0,0,0,0,0,0,0,0,0,0,0,0,0,0,0,0,0,0,0,0,0,0,0,0,0,0,0,0,0,0,7.0144,7.0145,0,7.0224,7.0225,7.0226,7.017,7.0167,7.0165,7.0162,7.0236,7.024,7.0244,0,0,0,0,0,0,0,0,0,0,0,0,0,6.9935,6.9939,7.0144,7.0145,7.0146,7.0224,7.0225,7.0226,7.017,7.0167,7.0164,7.0161,7.0234,7.0239,7.0244,0,0,0,0,0,0,0,0,0,0,0,0,0,7.0021,6.9941,7.0144,7.0128,7.0127,7.0223,7.0225,7.0226,7.0171,7.0167,7.0163,7.016,7.0233,7.0239,7.0245,7.0359,0,0,7.0265,7.0267,0,0,0,0,0,0,0,0,7.0016,7.0029,7.0129,7.0129,7.0129,7.0183,7.0178,7.027,7.0172,7.0154,7.0162,7.0158,7.0221,7.0228,7.0251,7.0362,7.0365,7.0265,7.0269,7.0272,7.0274,0,0,0,0,0,0,0,7.001,7.0025,7.0175,7.0131,7.013,7.0114,7.0122,7.0195,7.0207,7.0155,7.0151,7.0162,7.022,7.0245,7.0252,7.0366,7.0265,7.0271,7.0275,7.0277,7.0574,7.0578,0,0,0,0,0,0,7.0007,7.0021,7.0173,7.0178,7.0063,7.0121,7.013,7.0169,7.0206,7.0208,7.0165,7.0159,7.0235,7.0244,7.0254,7.0389,7.0272,7.0278,7.0281,7.057,7.0575,7.058,0,0,0,0,0,0,7.0003,7.0021,7.0169,7.0098,7.0116,7.0128,7.0173,7.0173,7.0198,7.0214,7.0215,7.0189,7.0233,7.0245,7.0334,7.0391,7.0281,7.0286,7.0565,7.0572,7.0577,7.066,0,0,0,0,0,0,6.9997,7.002,7.0065,7.01,7.012,7.025,7.0177,7.0177,7.021,7.0203,7.0236,7.0238,7.0231,7.0324,7.034,7.0398,7.0291,7.056,7.0568,7.0575,7.0652,7.0668,7.0682,0,0,0,0,0,6.999,7.0084,7.0068,7.0087,7.0177,7.0254,7.0265,7.0257,7.0215,7.0259,7.0269,7.0237,7.0383,7.0334,7.0351,7.0411,7.0557,7.0566,7.0575,7.0646,7.0665,7.0682,0,0,0,0,0,0,7.0052,7.0088,7.0071,7.0179,7.0214,7.0244,7.03,7.0278,7.0324,7.0315,7.0301,7.0309,7.0401,7.0415,7.036,7.0523,7.0462,7.0475,7.051,7.0529,7.0544,7.0538,7.0297,0,0,0,0,0,7.0079,7.0141,7.0168,7.0261,7.028,7.0287,7.032,7.0311,7.0346,7.0359,7.0376,7.0408,7.0461,7.0496,7.0546,7.0655,7.066,7.0705,7.0719,7.0732,7.0742,7.08,7.082,7.061,7.061,7.0609,0,0,7.0134,7.0161,7.0201,7.0274,7.03,7.0362,7.03,7.0367,7.0412,7.0369,7.0454,7.0467,7.0502,7.0602,7.0646,7.0616,7.0802,7.0743,7.0753,7.0757,7.0811,7.0831,7.0849,7.0616,7.0615,7.0614,0,0,7.0266,7.0294,7.0374,7.0403,7.0444,7.0449,7.0468,7.0502,7.051,7.0596,7.0565,7.0616,7.0708,7.0735,7.076,7.0903,7.0875,7.092,7.0996,7.1053,7.1069,7.1084,7.1134,7.1152,7.0931,7.0931,7.0931,0,7.0328,7.0423,7.0417,7.0489,7.0521,7.0488,7.0567,7.0594,7.0648,7.067,7.0637,7.0752,7.0773,7.0877,7.0913,7.0935,7.0954,7.0915,7.1068,7.1083,7.1096,7.1143,7.1162,7.0936,7.0935,7.0935,7.0934,0,7.0497,7.0563,7.0623,7.068,7.0719,7.0794,7.0797,7.0836,7.0825,7.0832,7.0919,7.0944,7.0998,7.1022,7.101,7.1125,7.1105,7.107,7.1009,7.1121,7.1165,7.1183,7.0943,7.0941,7.094,7.0939,0,0,7.0669,7.0724,7.0745,7.0771,7.0815,7.0864,7.0937,7.0993,7.1026,7.1065,7.1124,7.1203,7.1172,7.1201,7.1191,7.1241,7.1352,7.12,7.12,7.1226,7.1478,7.1503,7.1524,7.1334,7.1337,7.134,7.1475,0,7.0802,7.0933,7.093,7.1049,7.111,7.1079,7.1142,7.1175,7.1184,7.1234,7.1242,7.1299,7.1253,7.127,7.1318,7.1328,7.1402,7.1319,7.1386,7.1389,7.1377,7.1548,7.1574,7.17,7.1492,7.1495,7.1497,0,7.0975,7.1023,7.115,7.1186,7.1211,7.1268,7.1319,7.1368,7.1403,7.1406,7.144,7.1423,7.1494,7.1432,7.1529,7.1472,7.15,7.1509,7.1513,7.1518,7.1448,7.1555,7.174,7.1758,7.1524,7.1522,7.152,0,7.1086,7.1182,7.1271,7.1294,7.1338,7.1378,7.1398,7.143,7.1464,7.1507,7.1529,7.1579,7.1606,7.1644,7.164,7.1596,7.1738,7.1676,7.174,7.174,7.177,7.1768,7.196,7.179,7.179,7.179,7.1789,0,7.1235,7.1313,7.1322,7.1376,7.1462,7.1457,7.1542,7.1556,7.1586,7.164,7.1616,7.1667,7.166,7.171,7.1707,7.1787,7.18,7.1802,7.18,7.1804,7.1803,7.182,7.1811,7.1795,7.1794,7.1793,7.1792,0,7.1373,7.1382,7.1476,7.1511,7.1522,7.1584,7.1612,7.1662,7.167,7.1739,7.1755,7.1766,7.1824,7.1825,7.189,7.1888,7.1986,7.1974,7.1975,7.1972,7.2035,7.2029,7.2244,7.2271,7.2085,7.2087,7.2088,0,7.1467,7.1527,7.1569,7.1606,7.1629,7.1688,7.1723,7.172,7.1757,7.1802,7.1846,7.1903,7.1948,7.2042,7.2054,7.2104,7.2093,7.2165,7.21,7.2101,7.2092,7.2088,7.2093,7.2177,7.2179,7.218,7.2182,0,7.1632,7.1634,7.1687,7.1742,7.1786,7.1828,7.1867,7.1898,7.1899,7.1941,7.2002,7.2038,7.2106,7.2162,7.2211,7.2227,7.2204,7.2203,7.222,7.2223,7.2221,7.2222,7.2008,7.2197,7.2196,7.2195,7.2194,7.2193,7.1749,7.1801,7.184,7.19,7.193,7.1967,7.2017,7.2031,7.2083,7.2141,7.2135,7.2203,7.2235,7.2299,7.232,7.2371,7.2345,7.2371,7.2377,7.2383,7.2389,7.2214,7.238,7.2379,7.2379,7.2379,7.2378,0,7.1912,7.1936,7.1992,7.2049,7.2096,7.2074,7.2116,7.2155,7.2216,7.225,7.2296,7.2366,7.242,7.2437,7.2489,7.2526,7.2517,7.254,7.2536,7.254,7.241,7.2389,7.2546,7.2546,7.2546,7.2546,7.2546,7.2546,7.2002,7.2089,7.2096,7.2196,7.2218,7.2287,7.2313,7.2346,7.2374,7.2453,7.25,7.2512,7.2538,7.2592,7.264,7.2643,7.2663,7.269,7.2689,7.2566,7.2549,7.2533,7.2514,7.2695,7.2695,7.2815,7.2816,7.2817]}]]